Network for Lightning and Thunderstorms in Real Time - Real time lightning map
Regions/Countries: current only
List of Stations for "Australia" sorted ascending by Total
(Total = Number of received signals in the last two hours)
StationCityCommentCountryRegionsStatusLast signalTotalValidInvolvedUsedClosestFarthest
849Corryong, VicAustralia / VictoriaOceania 1Offline2024-04-12 23:19000024000 km0 km
972KingstonTrialing AntennasAustralia / TasmaniaOceania 1Offline2023-08-08 10:27000024000 km0 km
1015Lyrup, South Australia300mm ferrite Hfield/800mm Efi...Australia / South AustraliaOceania 1Offline2023-10-21 08:37000024000 km0 km
1015Lyrup, South Australia300mm ferrite Hfield/800mm Efi...Australia / South AustraliaAsia 1Offline2023-10-21 08:37000024000 km0 km
1363Brisbane Nth 2System RED H Field only 2m loo...Australia / QueenslandOceania 1Offline2024-03-31 23:40000024000 km0 km
1383South Sydney, NSWAustralia / New South WalesOceania 1Offline2022-03-13 04:10000024000 km0 km
1399Brisbane Nth 1System RED H Field only 2m loo...Australia / QueenslandOceania 1Offline2024-04-01 01:49000024000 km0 km
1515BaldivisAustralia / Western AustraliaOceania 1Offline2023-04-16 03:36000024000 km0 km
1593CabooltureHome sweet homeAustralia / QueenslandOceania 1Idle2022-10-30 00:00000024000 km0 km
1614Newcastle20cm ferrites, E-field with 10...Australia / New South WalesOceania 1Offline2022-09-29 14:51000024000 km0 km
1679BallaratE-field built-in, and now grou...Australia / VictoriaSouth America 1Idle2024-04-29 11:57000024000 km0 km
1679BallaratE-field built-in, and now grou...Australia / VictoriaEurope 1Idle2024-04-29 11:57000024000 km0 km
1679BallaratE-field built-in, and now grou...Australia / VictoriaAfrica 1Idle2024-04-29 11:57000024000 km0 km
1679BallaratE-field built-in, and now grou...Australia / VictoriaOceania 1Idle2024-04-29 11:57000024000 km0 km
1833KingstonLoops N-S and E-WAustralia / TasmaniaOceania 1Offline2024-06-10 04:17000024000 km0 km
1833KingstonLoops N-S and E-WAustralia / TasmaniaSouth America 1Offline2024-06-10 04:17000024000 km0 km
1833KingstonLoops N-S and E-WAustralia / TasmaniaAfrica 1Offline2024-06-10 04:17000024000 km0 km
1890StawellUnder test firmware 19.3Australia / VictoriaOceania 1Offline2022-11-06 12:58000024000 km0 km
2041Tamworth3 x 20cm ferrite H field. 1 x ...Australia / New South WalesOceania 1Offline2022-10-30 00:00000024000 km0 km
2050Sandy BayU of Tas Environmental Change ...Australia / TasmaniaOceania 1Idle2024-04-12 02:26000024000 km0 km
2050Sandy BayU of Tas Environmental Change ...Australia / TasmaniaSouth America 1Idle2024-04-12 02:26000024000 km0 km
2050Sandy BayU of Tas Environmental Change ...Australia / TasmaniaAfrica 1Idle2024-04-12 02:26000024000 km0 km
2064OrfordAustralia / TasmaniaOceania 1Idle2022-10-30 00:00000024000 km0 km
2066MordiallocAustralia / VictoriaOceania 1Idle2024-06-18 14:49000024000 km0 km
2120Keilor ParkSystem Blue. 2x 20cm ferrites....Australia / VictoriaOceania 1Bad GPS2023-11-05 22:35000024000 km0 km
2120Keilor ParkSystem Blue. 2x 20cm ferrites....Australia / VictoriaSouth America 1Bad GPS2023-11-05 22:35000024000 km0 km
2120Keilor ParkSystem Blue. 2x 20cm ferrites....Australia / VictoriaAfrica 1Bad GPS2023-11-05 22:35000024000 km0 km
2120Keilor ParkSystem Blue. 2x 20cm ferrites....Australia / VictoriaEurope 1Bad GPS2023-11-05 22:35000024000 km0 km
2136SeatonGippsland - Eastern VictoriaAustralia / VictoriaOceania 1Offline2023-10-31 00:35000024000 km0 km
2144Federal, NSWAustralia / New South WalesOceania 1Bad GPS2024-03-23 02:12000024000 km0 km
2167HeathmontAustralia / VictoriaOceania 1Offline2024-07-19 12:15000024000 km0 km
2167HeathmontAustralia / VictoriaSouth America 1Offline2024-07-19 12:15000024000 km0 km
2167HeathmontAustralia / VictoriaAfrica 1Offline2024-07-19 12:15000024000 km0 km
2201Mt CottonVK4RDB Repeater SiteAustralia / QueenslandOceania 1Idle2022-08-06 00:48000024000 km0 km
2281Darwin - AnulaAustralia / Northern TerritoryOceania 1Idle2024-05-07 12:31000024000 km0 km
2281Darwin - AnulaAustralia / Northern TerritorySouth America 1Idle2024-05-07 12:31000024000 km0 km
2281Darwin - AnulaAustralia / Northern TerritoryAfrica 1Idle2024-05-07 12:31000024000 km0 km
2332Chapel Hill,Using mag field only - 3 ortho...Australia / QueenslandOceania 1Offline2024-02-20 09:11000024000 km0 km
2332Chapel Hill,Using mag field only - 3 ortho...Australia / QueenslandEurope 3Offline2024-02-20 09:11000024000 km0 km
2332Chapel Hill,Using mag field only - 3 ortho...Australia / QueenslandAsia 1Offline2024-02-20 09:11000024000 km0 km
2332Chapel Hill,Using mag field only - 3 ortho...Australia / QueenslandSouth America 1Offline2024-02-20 09:11000024000 km0 km
2332Chapel Hill,Using mag field only - 3 ortho...Australia / QueenslandAfrica 1Offline2024-02-20 09:11000024000 km0 km
2332Chapel Hill,Using mag field only - 3 ortho...Australia / QueenslandJapan 1Offline2024-02-20 09:11000024000 km0 km
2332Chapel Hill,Using mag field only - 3 ortho...Australia / QueenslandEurope 1Offline2024-02-20 09:11000024000 km0 km
2332Chapel Hill,Using mag field only - 3 ortho...Australia / QueenslandEurope 2Offline2024-02-20 09:11000024000 km0 km
2428LismoreTestingAustralia / New South WalesOceania 1Offline2021-10-26 08:54000024000 km0 km
2428LismoreTestingAustralia / New South WalesAsia 1Offline2021-10-26 08:54000024000 km0 km
2435Hornsby, NSWSystem Blue; three-axis ferrit...Australia / New South WalesOceania 1Offline2024-04-02 21:35000024000 km0 km
2435Hornsby, NSWSystem Blue; three-axis ferrit...Australia / New South WalesAsia 1Offline2024-04-02 21:35000024000 km0 km
2558PetershamAustralia / New South WalesOceania 1Offline2024-04-01 09:24000024000 km0 km
2648MaroubraAustralia / New South WalesEurope 3Offline2023-12-04 21:14000024000 km0 km
2648MaroubraAustralia / New South WalesEurope 1Offline2023-12-04 21:14000024000 km0 km
2648MaroubraAustralia / New South WalesOceania 1Offline2023-12-04 21:14000024000 km0 km
2648MaroubraAustralia / New South WalesAfrica 1Offline2023-12-04 21:14000024000 km0 km
2648MaroubraAustralia / New South WalesEurope 2Offline2023-12-04 21:14000024000 km0 km
2662Caboolture, Brisbane3x200mmx15mm Ferrite Rod + 150...Australia / QueenslandAsia 1Offline2023-11-21 08:35000024000 km0 km
2662Caboolture, Brisbane3x200mmx15mm Ferrite Rod + 150...Australia / QueenslandOceania 1Offline2023-11-21 08:35000024000 km0 km
2667Para Hills WestBack To Testing StageAustralia / South AustraliaOceania 1Offline2024-07-18 20:32000024000 km0 km
2896Kembla GrangeAustralia / New South WalesOceania 1Bad GPS2023-01-02 13:40000024000 km0 km
2953StrathalbynSHR/Hallett/CFS SBYN-02Australia / South AustraliaOceania 1Offline2024-07-19 06:31000024000 km0 km
2976AdelaideAustralia / South AustraliaOceania 1Offline2024-07-07 20:36000024000 km0 km
2105Port LincolnAustralia / South AustraliaAfrica 1Idle2024-07-19 17:0331000 km0 km
2105Port LincolnAustralia / South AustraliaEurope 2Idle2024-07-19 17:0331100 km15957 km
2105Port LincolnAustralia / South AustraliaEurope 3Idle2024-07-19 17:0331100 km15957 km
2105Port LincolnAustralia / South AustraliaEurope 1Idle2024-07-19 17:0331000 km0 km
2105Port LincolnAustralia / South AustraliaOceania 1Idle2024-07-19 17:0331100 km165 km
2105Port LincolnAustralia / South AustraliaSouth America 1Idle2024-07-19 17:0331000 km0 km
2342KulnuraAustralia / New South WalesOceania 1Idle2024-07-19 16:5911771958 km1770 km
2098Neerim EastAustralia / VictoriaSouth America 1Running2024-07-19 17:36209000 km0 km
2098Neerim EastAustralia / VictoriaAfrica 1Running2024-07-19 17:36209000 km0 km
2098Neerim EastAustralia / VictoriaJapan 2Running2024-07-19 17:36209926372 km7994 km
2098Neerim EastAustralia / VictoriaOceania 1Running2024-07-19 17:3620920614 km818 km
2098Neerim EastAustralia / VictoriaAsia 1Running2024-07-19 17:36209993881 km6053 km
2311BallinaAustralia / New South WalesOceania 1Running2024-07-19 17:363120841042 km1822 km
1695BundabergSystem Blue. 38cm loopAustralia / QueenslandOceania 1Running2024-07-19 17:183737631696 km2754 km
1695BundabergSystem Blue. 38cm loopAustralia / QueenslandWorldRunning2024-07-19 17:183737754383 km7066 km
1631Carina180mm Cu pipe loop & 33 turn T...Australia / QueenslandOceania 1Running2024-07-19 17:395550741550 km3052 km
1263Dutton Park, Brisbane300mm loops (x 44 turns)Australia / QueenslandOceania 1Running2024-07-19 17:395922311544 km1940 km
2677The Vines, PerthAustralia / Western AustraliaAfrica 1Running2024-07-19 17:399480110 km8897 km
2677The Vines, PerthAustralia / Western AustraliaJapan 1Running2024-07-19 17:399480553506 km5076 km
2677The Vines, PerthAustralia / Western AustraliaEurope 2Running2024-07-19 17:399480900 km14010 km
2677The Vines, PerthAustralia / Western AustraliaEurope 1Running2024-07-19 17:399480000 km0 km
2677The Vines, PerthAustralia / Western AustraliaEurope 3Running2024-07-19 17:3994801100 km14010 km
2677The Vines, PerthAustralia / Western AustraliaOceania 1Running2024-07-19 17:39948094821 km5078 km
2677The Vines, PerthAustralia / Western AustraliaAsia 1Running2024-07-19 17:39948028193075 km5080 km
2233WoodendAustralia / VictoriaEurope 2Running2024-07-19 17:39116713437128 km17194 km
2233WoodendAustralia / VictoriaEurope 3Running2024-07-19 17:39116713237128 km17188 km
2233WoodendAustralia / VictoriaEurope 1Running2024-07-19 17:3911671000 km0 km
2233WoodendAustralia / VictoriaOceania 1Running2024-07-19 17:3911671137700 km4019 km
2233WoodendAustralia / VictoriaSouth America 1Running2024-07-19 17:3911671100 km10257 km
2233WoodendAustralia / VictoriaAfrica 1Running2024-07-19 17:3911671100 km10253 km
2081DromanaNew setup, indoors for testingAustralia / VictoriaOceania 1Running2024-07-19 17:401238295724 km4126 km
2271TaperooTestingAustralia / South AustraliaOceania 1Running2024-07-19 17:4016811497144 km1552 km
2271TaperooTestingAustralia / South AustraliaAsia 1Running2024-07-19 17:40168114970 km4975 km
2271TaperooTestingAustralia / South AustraliaJapan 2Running2024-07-19 17:401681141105402 km6803 km
2451Wavell HeightsAustralia / QueenslandOceania 1Running2024-07-19 17:39194165211553 km1886 km
2451Wavell HeightsAustralia / QueenslandAsia 1Running2024-07-19 17:39194165000 km0 km
2353WhyallaMostly relying on e field ante...Australia / South AustraliaEurope 3Running2024-07-19 17:392071432110 km17390 km
2353WhyallaMostly relying on e field ante...Australia / South AustraliaAsia 1Running2024-07-19 17:3920714316153286 km5765 km
2353WhyallaMostly relying on e field ante...Australia / South AustraliaSouth America 1Running2024-07-19 17:39207143110 km10249 km
Select your menu language
češtinadanskdeutschελληνικάenglishespañolsuomeksifrançaismagyaritaliano日本語latviskinederlandsenorskмакедонскиpolskiрусскийсрпскиsvenskatürkукраїнський
If your language is not supported and if you want to adapt the menu language, then write an email to info ☺ blitzortung.org.